Regional Weather Roundup
Issued by NWS Goodland, KS

Home | Current Version | Previous Version | Graphics & Text | Print | Product List | Glossary On
Versions: 1 2 3 4 5 6 7 8 9 10 11 12 13 14 15 16 17 18 19 20 21 22 23 24 25 26 27 28 29 30 31 32 33 34 35 36 37 38 39 40 41 42 43 44 45 46 47 48 49 50
000
ASUS43 KGLD 052308
RWRGLD

GOODLAND FORECAST AREA HOURLY WEATHER ROUNDUP
NATIONAL WEATHER SERVICE GOODLAND KS
500 PM MDT TUE MAY 05 2015

...OFFICIAL OBSERVATIONS...

CITY           SKY/WX    TMP DP  RH WIND       PRES   REMARKS
GOODLAND KS    LGT RAIN  57  55  93 SE23G32   29.80F
HILL CITY KS   LGT RAIN  61  57  87 SE10      29.88F
IMPERIAL NEB   LGT RAIN  59  54  83 SE20G25   29.85F
MCCOOK NEB     CLOUDY    65  52  62 SE22G35   29.86F
AKRON CO       RAIN      53  53 100 E13       29.82F FOG
BURLINGTON CO  LGT RAIN  56  53  90 SE28G35   29.77F FOG
LIMON CO       LGT RAIN  52  50  93 N14       29.78F
$$

...UNOFFICIAL OBSERVATIONS...

CITY           SKY/WX    TMP DP  RH WIND       PRES   REMARKS
GOVE KS          N/A     59  32  36 MISG        N/A
LENORA KS        N/A     59  32  36 MISG        N/A
SHARON SPRINGS   N/A     57  56  96 MISG        N/A
KIT CARSON CO    N/A     57  54  91 MISG        N/A
YUMA CO          N/A     57  57 100 E20G29      N/A
$$


USA.gov is the U.S. government's official web portal to all federal, state and local government web resources and services.